This is the latest recevied weather packets stored in our database for station/object W3AJR. If no packets are shown the sender has not sent any weather packets the latest 10 day(s).
| Time | Temp. | Humidity | Pressure | Rain* | Wind** | Luminosity | Snow |
|---|---|---|---|---|---|---|---|
| 1778169908 | 12.78° C | 65% | 1011.7 hPa | 0 mm | - | 119 W/m² | - |
| 1778169604 | 13.33° C | 61% | 1011.4 hPa | 0 mm | - | 123 W/m² | - |
| 1778169299 | 13.33° C | 60% | 1011.5 hPa | 0 mm | - | 82 W/m² | - |
| 1778168997 | 13.33° C | 62% | 1011.7 hPa | 0 mm | - | 201 W/m² | - |
| 1778168693 | 13.33° C | 63% | 1011.4 hPa | 0 mm | - | 286 W/m² | - |
| 1778168390 | 13.33° C | 63% | 1011.6 hPa | 0 mm | - | 268 W/m² | - |
| 1778168087 | 13.33° C | 63% | 1011.6 hPa | 0 mm | - | 220 W/m² | - |
| 1778167784 | 12.78° C | 64% | 1011.8 hPa | 0 mm | - | 219 W/m² | - |
| 1778167479 | 13.33° C | 64% | 1011.8 hPa | 0 mm | - | 185 W/m² | - |
| 1778167176 | 12.78° C | 66% | 1011.8 hPa | 0 mm | - | 196 W/m² | - |
| 1778166872 | 12.78° C | 67% | 1011.8 hPa | 0 mm | - | 202 W/m² | - |
| 1778166569 | 12.78° C | 66% | 1011.7 hPa | 0 mm | - | 144 W/m² | - |
| 1778166266 | 12.78° C | 68% | 1011.8 hPa | 0 mm | - | 117 W/m² | - |
| 1778165963 | 12.78° C | 67% | 1011.9 hPa | 0 mm | - | 137 W/m² | - |
| 1778165658 | 12.78° C | 67% | 1011.9 hPa | 0 mm | - | 80 W/m² | - |
| 1778165355 | 12.78° C | 70% | 1011.9 hPa | 0 mm | - | 126 W/m² | - |
| 1778165053 | 12.78° C | 69% | 1012.2 hPa | 0 mm | - | 109 W/m² | - |
| 1778164749 | 12.22° C | 69% | 1012.2 hPa | 0 mm | - | 153 W/m² | - |
| 1778164447 | 12.22° C | 70% | 1012.3 hPa | 0 mm | - | 130 W/m² | - |
| 1778164143 | 12.22° C | 72% | 1012.2 hPa | 0 mm | - | 124 W/m² | - |
| 1778163839 | 12.22° C | 72% | 1012.3 hPa | 0 mm | - | 123 W/m² | - |
| 1778163536 | 12.22° C | 73% | 1012.2 hPa | 0 mm | - | 105 W/m² | - |
| 1778163233 | 12.22° C | 74% | 1012.7 hPa | 0 mm | - | 101 W/m² | - |
| 1778162929 | 12.22° C | 73% | 1012.6 hPa | 0 mm | - | 66 W/m² | - |
| 1778162626 | 12.22° C | 72% | 1012.6 hPa | 0 mm | - | 56 W/m² | - |
* Rain latest hour (hover to see other rain measurements)
** Current wind speed in m/s (hover to see current wind gust speed)